Printer-friendly version

IAU Minor Planet Center

Minor Planet Center

MPEC 2005-M52 : COMET C/2005 H1 (LINEAR)

The following Minor Planet Electronic Circular may be linked-to from your own Web pages, but must not otherwise be redistributed electronically.


Read MPEC 2005-M51 Read MPEC 2005-M53


M.P.E.C. 2005-M52                                Issued 2005 June 27, 15:06 UT

     The Minor Planet Electronic Circulars contain information on unusual
         minor planets and routine data on comets.  They are published
   on behalf of Commission 20 of the International Astronomical Union by the
          Minor Planet Center, Smithsonian Astrophysical Observatory,
                          Cambridge, MA 02138, U.S.A.

                  Supported in part by the Brinson Foundation
             Prepared using the Tamkin Foundation Computer Network

                              MPC@CFA.HARVARD.EDU
          URL http://cfa-www.harvard.edu/iau/mpc.html  ISSN 1523-6714

                           COMET C/2005 H1 (LINEAR)

Observations:
    CK05H010  C2005 06 18.91131 16 17 23.93 +43 36 25.5                 EM052941
    CK05H010  C2005 06 18.91281 16 17 23.86 +43 36 24.3                 EM052941
    CK05H010  C2005 06 18.91356 16 17 23.83 +43 36 23.7                 EM052941
    CK05H010  C2005 06 18.91431 16 17 23.79 +43 36 23.3                 EM052941
    CK05H010  C2005 06 24.92787 16 11 38.45 +42 26 58.8          19.8 N EM052941
    CK05H010  C2005 06 24.92898 16 11 38.38 +42 26 57.9          19.8 N EM052941
    CK05H010  C2005 06 24.93010 16 11 38.32 +42 26 56.9          19.7 N EM052941
    CK05H010  C2005 06 24.93233 16 11 38.20 +42 26 55.3          19.7 N EM052941

Observer details:
941 Observatorio Pla D'Arguines.  Observer R. Ferrando.  0.36-m f/6.3
    Schmidt-Cassegrain + CCD.

Orbital elements:
    C/2005 H1 (LINEAR)
T 2004 Oct. 28.4627 TT                                  MPC
q   4.768250             (2000.0)            P               Q
z  +0.021651       Peri.   95.2034      -0.1682118      -0.3033929
                   Node    71.4944      -0.4278865      -0.8346752
e   0.896764       Incl.   81.5100      +0.8880416      -0.4596412
From 132 observations 2005 Apr. 30-June 24.

Brian G. Marsden             (C) Copyright 2005 MPC           M.P.E.C. 2005-M52

Read MPEC 2005-M51 Read MPEC 2005-M53


Our Web policy. Index to the CBAT/MPC/ICQ pages.


Valid HTML 4.01!